This is the latest recevied weather packets stored in our database for station/object KN6WGU. If no packets are shown the sender has not sent any weather packets the latest 10 day(s).
| Time | Temp. | Humidity | Pressure | Rain* | Wind** | Luminosity | Snow |
|---|---|---|---|---|---|---|---|
| 1787755966 | 22.22° C | 75% | 1009.6 hPa | 0 mm | - | 79 W/m² | - |
| 1787755665 | 22.22° C | 75% | 1009.5 hPa | 0 mm | - | 88 W/m² | - |
| 1787755361 | 22.22° C | 74% | 1009.6 hPa | 0 mm | - | 86 W/m² | - |
| 1787755061 | 21.67° C | 76% | 1009.6 hPa | 0 mm | - | 79 W/m² | - |
| 1787754755 | 21.67° C | 76% | 1009.5 hPa | 0 mm | - | 82 W/m² | - |
| 1787754453 | 21.67° C | 75% | 1009.7 hPa | 0 mm | - | 81 W/m² | - |
| 1787754147 | 21.67° C | 75% | 1009.6 hPa | 0 mm | - | 89 W/m² | - |
| 1787753842 | 21.67° C | 75% | 1009.7 hPa | 0 mm | - | 102 W/m² | - |
| 1787753541 | 21.11° C | 76% | 1009.5 hPa | 0 mm | - | 114 W/m² | - |
| 1787753240 | 21.11° C | 76% | 1009.7 hPa | 0 mm | - | 121 W/m² | - |
| 1787752935 | 21.11° C | 76% | 1009.7 hPa | 0 mm | - | 108 W/m² | - |
| 1787752634 | 21.11° C | 76% | 1009.8 hPa | 0 mm | - | 128 W/m² | - |
| 1787752330 | 21.11° C | 76% | 1009.6 hPa | 0 mm | - | 116 W/m² | - |
| 1787752029 | 20.56° C | 77% | 1010.1 hPa | 0 mm | - | 110 W/m² | - |
| 1787751724 | 20.56° C | 77% | 1009.6 hPa | 0 mm | - | 99 W/m² | - |
| 1787751419 | 20.56° C | 77% | 1009.8 hPa | 0 mm | - | 97 W/m² | - |
| 1787751115 | 20.56° C | 77% | 1009.9 hPa | 0 mm | - | 100 W/m² | - |
| 1787750810 | 20.56° C | 79% | 1009.9 hPa | 0 mm | - | 103 W/m² | - |
| 1787750509 | 20° C | 78% | 1010 hPa | 0 mm | - | 106 W/m² | - |
| 1787750204 | 20° C | 79% | 1010 hPa | 0 mm | - | 108 W/m² | - |
| 1787749900 | 19.44° C | 81% | 1009.9 hPa | 0 mm | - | 103 W/m² | - |
| 1787749596 | 19.44° C | 81% | 1010.1 hPa | 0 mm | - | 89 W/m² | - |
| 1787749291 | 19.44° C | 81% | 1010.1 hPa | 0 mm | - | 72 W/m² | - |
| 1787748986 | 18.89° C | 82% | 1010.2 hPa | 0 mm | - | 63 W/m² | - |
| 1787748680 | 18.89° C | 82% | 1010.5 hPa | 0 mm | - | 57 W/m² | - |
* Rain latest hour (hover to see other rain measurements)
** Current wind speed in m/s (hover to see current wind gust speed)